Location: Unspecified
(0.0000°N, 0.0000°E)
Time: 15:12:31
(UTC+02:00)

ASC 2 Rocket - Visible Passes

Search period start: 01 April 2015 00:00
Search period end: 11 April 2015 00:00
Orbit: 555 x 2348 km, 24.0° (Epoch: 31 March)

Date Brightness Start Highest point End Pass type
(mag) Time Alt. Az. Time Alt. Az. Time Alt. Az.
01 Apr 7.3 00:27:58 10° WSW 00:28:49 12° WSW 00:28:49 12° WSW visible
01 Apr 6.0 21:13:43 10° SW 21:26:45 42° SSE 21:32:19 28° ESE visible
01 Apr 6.2 23:19:29 10° WSW 23:27:11 40° SW 23:27:11 40° SW visible
02 Apr 6.5 20:05:53 10° SW 20:18:26 35° SSE 20:29:45 10° ESE visible
02 Apr 5.3 22:11:12 10° SW 22:24:57 63° SSE 22:25:36 63° SE visible
03 Apr 7.1 00:17:49 10° WSW 00:20:29 18° WSW 00:20:29 18° WSW visible
03 Apr 6.0 21:03:12 10° SW 21:17:01 51° SSE 21:24:05 27° E visible
03 Apr 5.8 23:09:05 10° WSW 23:18:58 53° WSW 23:18:58 53° WSW visible
04 Apr 5.3 22:00:42 10° WSW 22:15:04 77° SSE 22:17:30 63° E visible
05 Apr 6.9 00:07:49 10° W 00:12:22 24° W 00:12:22 24° W visible
05 Apr 5.9 20:52:47 10° SW 21:07:06 62° SSE 21:16:05 22° E visible
05 Apr 5.6 22:58:50 10° WSW 23:10:58 63° WNW 23:10:58 63° WNW visible
06 Apr 5.5 21:50:22 10° WSW 22:05:02 89° NNW 22:09:37 48° ENE visible
06 Apr 6.7 23:58:00 10° W 00:04:30 29° WNW 00:04:30 29° WNW visible
07 Apr 5.8 20:42:29 10° WSW 20:57:00 74° SSE 21:08:17 16° ENE visible
07 Apr 5.7 22:48:47 10° WSW 23:02:39 58° NNW 23:03:11 57° NNW visible
08 Apr 5.5 07:18:14 10° NNW 07:20:31 14° NNE 07:22:49 10° NE visible
08 Apr 5.8 21:40:14 10° WSW 21:54:53 76° NNW 22:01:53 33° NE visible
08 Apr 6.6 23:48:22 10° W 23:56:47 31° NW 23:56:47 31° NW visible
09 Apr 5.9 20:32:23 10° WSW 20:46:47 86° SSE 21:00:16 10° ENE visible
09 Apr 6.0 22:38:57 10° W 22:52:39 49° NNW 22:55:30 43° N visible
10 Apr 7.5 00:49:14 10° WNW 00:50:24 12° WNW 00:50:24 12° WNW visible
10 Apr 4.9 07:08:03 10° NNW 07:11:36 23° NNE 07:14:53 10° ENE visible
10 Apr 6.1 21:30:19 10° WSW 21:44:42 64° NNW 21:54:12 22° NE visible
